Yoho Park, British Columbia

2:21 AM MST on January 22, 2018 (GMT -0700)
Yoho Park

Weather History for CWYL - January, 2013

Change the Weather History Date:

Thursday, January 10, 2013

  Actual Average Record
Temperature  
Mean Temperature 16 °F -  
Max Temperature 21 °F - - ()
Min Temperature 10 °F - - ()
Degree Days  
Heating Degree Days 50    
Moisture  
Dew Point 15 °F    
Average Humidity 92    
Maximum Humidity 95    
Minimum Humidity 87    
Precipitation  
Precipitation 0.00 in - - ()
Sea Level Pressure  
Sea Level Pressure 29.95 in    
Wind  
Wind Speed 7 mph ()    
Max Wind Speed 13 mph    
Max Gust Speed -    
T = Trace of Precipitation, MM = Missing Value Source: Averaged Metar Reports

Daily Weather History Graph

Daily Weather History Graph

Search for Another Location

Airport or City:

Trip Planner

Search our weather history database for the weather conditions in past years. The results will help you decide how hot, cold, wet, or windy it might be!

Date:

Astronomy

Jan. 10, 2013 Rise Set
Actual Time 8:47 AM MST 4:59 PM MST
Civil Twilight 8:08 AM MST 5:38 PM MST
Nautical Twilight 7:26 AM MST 6:20 PM MST
Astronomical Twilight 6:45 AM MST 7:00 PM MST
Moon 7:30 AM MST (1/10) 4:13 PM MST (1/10)
Length of Visible Light 9h 29m
Length of Day
8h 11m
Waning Crescent, 2% of the Moon is Illuminated
Jan 10
Waning Crescent
Jan 11
New
Jan 18
First Quarter
Jan 26
Full
Feb 3
Last Quarter

Hourly Weather History & Observations

Time (MST) Temp. Windchill Dew Point Humidity Pressure Visibility Wind Dir Wind Speed Gust Speed Precip Events Conditions
12:00 AM 21.4 °F 16.6 °F 20.1 °F 95% 29.74 in - SW 3.5 mph - N/A   Unknown
1:00 AM 21.6 °F - 20.3 °F 95% 29.77 in - North 1.2 mph - N/A   Unknown
2:00 AM 20.7 °F 11.9 °F 19.4 °F 95% 29.80 in - NE 6.9 mph - N/A   Unknown
3:00 AM 19.9 °F 9.3 °F 18.7 °F 95% 29.83 in - ENE 9.2 mph - N/A   Unknown
4:00 AM 19.6 °F 9.7 °F 18.3 °F 95% 29.84 in - ENE 8.1 mph - N/A   Unknown
5:00 AM 19 °F - 18 °F 93% 29.86 in - East 9.2 mph - -  
5:00 AM 19.2 °F 8.4 °F 17.8 °F 94% 29.86 in - East 9.2 mph - N/A   Unknown
6:00 AM 18.7 °F 9.5 °F 17.2 °F 94% 29.87 in - ENE 6.9 mph - N/A   Unknown
7:00 AM 18.0 °F 8.7 °F 16.5 °F 94% 29.89 in - ENE 6.9 mph - N/A   Unknown
8:00 AM 17.2 °F 7.8 °F 15.8 °F 94% 29.91 in - ENE 6.9 mph - N/A   Unknown
9:00 AM 16.5 °F 6.0 °F 15.1 °F 94% 29.94 in - East 8.1 mph - N/A   Unknown
10:00 AM 16.7 °F 6.2 °F 15.3 °F 94% 29.97 in - East 8.1 mph - N/A   Unknown
11:00 AM 17 °F - 16 °F 92% 29.96 in - East 9.2 mph - -  
11:00 AM 17.2 °F 6.0 °F 15.6 °F 93% 29.96 in - East 9.2 mph - N/A   Unknown
12:00 PM 17.8 °F 5.2 °F 15.8 °F 92% 29.96 in - ENE 11.5 mph - N/A   Unknown
1:00 PM 18.3 °F 5.2 °F 16.0 °F 91% 29.94 in - ENE 12.7 mph - N/A   Unknown
2:00 PM 18.3 °F 5.9 °F 16.0 °F 91% 29.94 in - ENE 11.5 mph - N/A   Unknown
3:00 PM 18.0 °F 6.1 °F 15.8 °F 91% 29.96 in - East 10.4 mph - N/A   Unknown
4:00 PM 16.9 °F 4.1 °F 14.5 °F 91% 29.99 in - ENE 11.5 mph - N/A   Unknown
5:00 PM 16 °F - 14 °F 88% 30.01 in - ENE 10.4 mph - -  
5:00 PM 16.3 °F 4.1 °F 14.0 °F 90% 30.01 in - ENE 10.4 mph - N/A   Unknown
6:00 PM 14.7 °F 2.9 °F 12.4 °F 90% 30.02 in - East 9.2 mph - N/A   Unknown
7:00 PM 14.0 °F -0.2 °F 11.8 °F 91% 30.05 in - ENE 12.7 mph - N/A   Unknown
8:00 PM 13.6 °F 0.0 °F 11.5 °F 91% 30.06 in - East 11.5 mph - N/A   Unknown
10:00 PM 11.7 °F -0.9 °F 9.5 °F 91% 30.12 in - East 9.2 mph - N/A   Unknown
11:00 PM 10 °F - 8 °F 87% 30.13 in - East 9.2 mph - -  
11:00 PM 10.4 °F -2.4 °F 7.9 °F 90% 30.13 in - East 9.2 mph - N/A   Unknown